Weather History for Claremore, OK

Change the Weather History Date:

Friday, September 5, 2014

  Actual Average (KTUL) Record (KTUL)
Temperature  
Mean Temperature 81 °F 77 °F  
Max Temperature 93 °F 88 °F 107 °F (1913)
Min Temperature 68 °F 67 °F 49 °F (1974)
Degree Days  
Heating Degree Days 0 0  
Month to date heating degree days 0  
Since 1 July heating degree days 0  
Cooling Degree Days 16 12  
Month to date cooling degree days 66  
Year to date cooling degree days 1767  
Growing Degree Days 31 (Base 50)    
Moisture  
Dew Point 68 °F    
Average Humidity 69    
Maximum Humidity 94    
Minimum Humidity 44    
Precipitation  
Precipitation 0.00 in 0.13 in 1.62 in (1926)
Month to date precipitation 0.67  
Year to date precipitation 28.15  
Sea Level Pressure  
Sea Level Pressure 30.08 in    
Wind  
Wind Speed 7 mph (South)    
Max Wind Speed 16 mph    
Max Gust Speed 21 mph    
Visibility 10 miles    
Events      
T = Trace of Precipitation, MM = Missing Value Source: NWS Daily Summary

Daily Weather History Graph

Daily Weather History Graph

Search for Another Location

Airport:

Trip Planner

Search our weather history database for the weather conditions in past years. The results will help you decide how hot, cold, wet, or windy it might be!

Date:

Astronomy

Sep. 05, 2014 Rise Set
Actual Time 6:56 AM CDT 7:43 PM CDT
Civil Twilight 6:30 AM CDT 8:10 PM CDT
Nautical Twilight 5:59 AM CDT 8:40 PM CDT
Astronomical Twilight 5:27 AM CDT 9:12 PM CDT
Moon 5:09 PM CDT (9/5) 2:56 AM CDT (9/5)
Length of Visible Light 13h 39m
Length of Day
12h 47m
Waxing Gibbous, 84% of the Moon is Illuminated
Sep 5
Waxing Gibbous
Sep 8
Full
Sep 15
Last Quarter
Sep 24
New
Oct 1
First Quarter

Hourly Weather History & Observations

Time (CDT) Temp. Heat Index Dew Point Humidity Pressure Visibility Wind Dir Wind Speed Gust Speed Precip Events Conditions
12:15 AM 77.0 °F - 68.0 °F 74% 30.05 in 10.0 mi SSE 5.8 mph - N/A   Clear
12:35 AM 75.2 °F - 68.0 °F 78% 30.05 in 10.0 mi SSE 4.6 mph - N/A   Clear
12:55 AM 73.4 °F - 68.0 °F 83% 30.05 in 10.0 mi South 5.8 mph - N/A   Clear
1:15 AM 73.4 °F - 68.0 °F 83% 30.06 in 10.0 mi South 4.6 mph - N/A   Clear
1:35 AM 73.4 °F - 68.0 °F 83% 30.06 in 10.0 mi South 3.5 mph - N/A   Clear
1:55 AM 73.4 °F - 68.0 °F 83% 30.05 in 10.0 mi South 4.6 mph - N/A   Clear
2:15 AM 73.4 °F - 68.0 °F 83% 30.05 in 10.0 mi South 5.8 mph - N/A   Clear
2:35 AM 73.4 °F - 68.0 °F 83% 30.06 in 10.0 mi South 5.8 mph - N/A   Clear
2:55 AM 73.4 °F - 68.0 °F 83% 30.06 in 10.0 mi South 5.8 mph - N/A   Clear
3:15 AM 73.4 °F - 68.0 °F 83% 30.06 in 10.0 mi South 5.8 mph - N/A   Clear
3:35 AM 73.4 °F - 68.0 °F 83% 30.06 in 10.0 mi South 4.6 mph - N/A   Clear
3:55 AM 73.4 °F - 68.0 °F 83% 30.06 in 10.0 mi South 6.9 mph - N/A   Clear
4:15 AM 73.4 °F - 68.0 °F 83% 30.06 in 10.0 mi South 6.9 mph - N/A   Clear
4:35 AM 73.4 °F - 68.0 °F 83% 30.07 in 10.0 mi South 8.1 mph - N/A   Clear
4:55 AM 73.4 °F - 68.0 °F 83% 30.07 in 10.0 mi South 5.8 mph - N/A   Clear
5:15 AM 71.6 °F - 68.0 °F 88% 30.07 in 10.0 mi South 5.8 mph - N/A   Clear
5:35 AM 71.6 °F - 68.0 °F 88% 30.07 in 10.0 mi South 4.6 mph - N/A   Clear
5:55 AM 71.6 °F - 68.0 °F 88% 30.08 in 10.0 mi Calm Calm - N/A   Clear
6:15 AM 71.6 °F - 68.0 °F 88% 30.08 in 10.0 mi Calm Calm - N/A   Clear
6:35 AM 69.8 °F - 68.0 °F 94% 30.09 in 10.0 mi Calm Calm - N/A   Clear
6:55 AM 69.8 °F - 68.0 °F 94% 30.09 in 10.0 mi SSE 4.6 mph - N/A   Clear
7:15 AM 69.8 °F - 68.0 °F 94% 30.10 in 10.0 mi SSE 3.5 mph - N/A   Clear
7:35 AM 69.8 °F - 68.0 °F 94% 30.11 in 10.0 mi Calm Calm - N/A   Clear
7:55 AM 71.6 °F - 69.8 °F 94% 30.11 in 10.0 mi Calm Calm - N/A   Clear
8:15 AM 73.4 °F - 69.8 °F 88% 30.11 in 10.0 mi South 3.5 mph - N/A   Clear
8:35 AM 77.0 °F - 69.8 °F 78% 30.11 in 10.0 mi South 6.9 mph - N/A   Clear
8:55 AM 78.8 °F - 69.8 °F 74% 30.11 in 10.0 mi South 6.9 mph - N/A   Clear
9:15 AM 80.6 °F 83.9 °F 69.8 °F 70% 30.11 in 10.0 mi SSW 8.1 mph - N/A   Clear
9:35 AM 80.6 °F 83.9 °F 69.8 °F 70% 30.11 in 10.0 mi SW 9.2 mph - N/A   Clear
9:55 AM 82.4 °F 86.3 °F 69.8 °F 66% 30.11 in 10.0 mi SW 9.2 mph - N/A   Clear
10:15 AM 82.4 °F 86.3 °F 69.8 °F 66% 30.11 in 10.0 mi WSW 9.2 mph - N/A   Clear
10:35 AM 84.2 °F 88.4 °F 69.8 °F 62% 30.11 in 10.0 mi WSW 6.9 mph - N/A   Clear
11:15 AM 87.8 °F 92.6 °F 69.8 °F 55% 30.12 in 10.0 mi SW 9.2 mph - N/A   Clear
11:35 AM 87.8 °F 92.6 °F 69.8 °F 55% 30.11 in 10.0 mi SSW 9.2 mph - N/A   Clear
11:55 AM 89.6 °F 94.7 °F 69.8 °F 52% 30.11 in 10.0 mi SW 9.2 mph - N/A   Clear
12:15 PM 89.6 °F 94.7 °F 69.8 °F 52% 30.11 in 10.0 mi SSW 6.9 mph - N/A   Clear
12:35 PM 89.6 °F 93.4 °F 68.0 °F 49% 30.10 in 10.0 mi SW 11.5 mph - N/A   Clear
12:55 PM 89.6 °F 93.4 °F 68.0 °F 49% 30.10 in 10.0 mi SSW 10.4 mph 17.3 mph N/A   Clear
1:15 PM 91.4 °F 95.4 °F 68.0 °F 46% 30.09 in 10.0 mi SW 8.1 mph 17.3 mph N/A   Clear
1:35 PM 91.4 °F 95.4 °F 68.0 °F 46% 30.09 in 10.0 mi SSW 6.9 mph 10.4 mph N/A   Clear
1:55 PM 91.4 °F 95.4 °F 68.0 °F 46% 30.08 in 10.0 mi South 12.7 mph 17.3 mph N/A   Clear
2:15 PM 91.4 °F 95.4 °F 68.0 °F 46% 30.08 in 10.0 mi South 10.4 mph - N/A   Clear
2:35 PM 91.4 °F 95.4 °F 68.0 °F 46% 30.07 in 10.0 mi SW 11.5 mph 20.7 mph N/A   Clear
2:55 PM 91.4 °F 95.4 °F 68.0 °F 46% 30.06 in 10.0 mi SSW 10.4 mph 19.6 mph N/A   Clear
3:15 PM 91.4 °F 95.4 °F 68.0 °F 46% 30.06 in 10.0 mi SSW 13.8 mph 18.4 mph N/A   Clear
3:35 PM 93.2 °F 97.7 °F 68.0 °F 44% 30.05 in 10.0 mi SSW 6.9 mph 17.3 mph N/A   Clear
3:55 PM 93.2 °F 97.7 °F 68.0 °F 44% 30.04 in 10.0 mi South 12.7 mph - N/A   Clear
4:15 PM 91.4 °F 95.4 °F 68.0 °F 46% 30.03 in 10.0 mi South 9.2 mph - N/A   Clear
4:35 PM 91.4 °F 95.4 °F 68.0 °F 46% 30.02 in 10.0 mi South 12.7 mph - N/A   Clear
4:55 PM 89.6 °F 93.4 °F 68.0 °F 49% 30.02 in 10.0 mi SSW 9.2 mph - N/A   Clear
5:15 PM 91.4 °F 95.4 °F 68.0 °F 46% 30.02 in 10.0 mi South 11.5 mph - N/A   Clear
5:35 PM 91.4 °F 95.4 °F 68.0 °F 46% 30.01 in 10.0 mi South 8.1 mph - N/A   Clear
5:55 PM 89.6 °F 94.7 °F 69.8 °F 52% 30.01 in 10.0 mi South 8.1 mph - N/A   Clear
6:15 PM 87.8 °F 91.4 °F 68.0 °F 52% 30.01 in 10.0 mi South 6.9 mph - N/A   Clear
6:35 PM 86.0 °F 89.4 °F 68.0 °F 55% 30.02 in 10.0 mi South 5.8 mph - N/A   Clear
6:55 PM 86.0 °F 90.4 °F 69.8 °F 58% 30.03 in 10.0 mi South 4.6 mph - N/A   Clear
7:15 PM 82.4 °F 86.3 °F 69.8 °F 66% 30.04 in 10.0 mi North 12.7 mph 17.3 mph N/A   Clear
7:35 PM 78.8 °F - 68.0 °F 69% 30.06 in 10.0 mi North 12.7 mph 20.7 mph N/A   Clear
7:55 PM 77.0 °F - 68.0 °F 74% 30.06 in 10.0 mi NNE 8.1 mph - N/A   Clear
8:15 PM 77.0 °F - 66.2 °F 69% 30.07 in 10.0 mi NNE 12.7 mph 18.4 mph N/A   Clear
8:35 PM 75.2 °F - 66.2 °F 73% 30.07 in 10.0 mi NNE 11.5 mph 18.4 mph N/A   Clear
9:15 PM 73.4 °F - 66.2 °F 78% 30.10 in 10.0 mi NE 8.1 mph - N/A   Clear
9:35 PM 73.4 °F - 66.2 °F 78% 30.11 in 10.0 mi NNE 6.9 mph - N/A   Clear
9:55 PM 71.6 °F - 66.2 °F 83% 30.12 in 10.0 mi North 5.8 mph - N/A   Clear
10:15 PM 71.6 °F - 66.2 °F 83% 30.13 in 10.0 mi North 4.6 mph - N/A   Clear
10:35 PM 71.6 °F - 66.2 °F 83% 30.15 in 10.0 mi NNW 8.1 mph - N/A   Clear
11:15 PM 69.8 °F - 64.4 °F 83% 30.14 in 10.0 mi North 16.1 mph - N/A   Clear
11:55 PM 68.0 °F - 62.6 °F 83% 30.16 in 10.0 mi North 6.9 mph 18.4 mph N/A   Mostly Cloudy